Home > Weather > Coimbra > Past weeks

Flag for Portugal Past Weather in Coimbra, Portugal — Yesterday and Last 2 Weeks

Now
72 °F

Passing clouds.


Feels Like: 75 °F
Forecast: 56 / 78 °F
Wind: 14 mph from Northwest

Location: Porto / Pedras Rubras

Current Time: Jun 28, 2016 at 4:19:23 PM

Latest Report: Jun 28, 2016 at 3:30 PM


Visibility: N/A

Pressure: 30.04 "Hg

Humidity: 69%

Dew Point: 61 °F

Location of CoimbraLocation

Past Weather in Coimbra — Graph

°F

Coimbra Temperature Yesterday

Maximum temperature yesterday: 82 °F (at 12:30 PM)
Minimum temperature yesterday: 61 °F (at 6:30 AM)
Average temperature yesterday: 72 °F

High & Low Weather Summary for the Past Weeks

 TemperatureHumidityPressure
High82 °F (Jun 27, 12:30 PM)100% (Jun 14, 1:00 AM)30.36 "Hg (Jun 14, 1:00 AM)
Low52 °F (Jun 18, 5:30 AM)30% (Jun 27, 12:30 PM)29.74 "Hg (Jun 15, 5:30 AM)
Average64 °F82%30.08 "Hg
* Reported Jun 13 3:00 PM — Jun 28 3:00 PM, Coimbra, Weather by CustomWeather, © 2016

Note: Actual official high and low records may vary slightly from our data, if they occured in-between our weather recording intervals... More about our weather records

Advertising

Coimbra Weather History for the Previous 24 Hours

Scroll right to see more
 ConditionsComfort  
Time TempWeatherWind HumidityBarometerVisibility
3:00 PM
Tue, Jun 28
72 °FSunny.12 mph69%30.04 "Hg10 mi
2:30 PM72 °FPassing clouds.13 mph69%30.04 "HgN/A
2:00 PM72 °FPassing clouds.12 mph65%30.04 "HgN/A
1:30 PM72 °FPassing clouds.12 mph65%30.04 "HgN/A
1:00 PM72 °FPassing clouds.12 mph65%30.04 "HgN/A
12:30 PM70 °FSunny.13 mph69%30.04 "Hg10 mi
12:00 PM70 °FPassing clouds.10 mph64%30.04 "HgN/A
11:30 AM70 °FSunny.8 mph69%30.04 "Hg10 mi
11:00 AM72 °FSunny.7 mph65%30.04 "Hg10 mi
10:30 AM73 °FPassing clouds.5 mph65%30.07 "HgN/A
10:00 AM72 °FPassing clouds.6 mph61%30.07 "HgN/A
9:30 AM70 °FSunny.9 mph64%30.04 "Hg10 mi
9:00 AM68 °FSunny.8 mph69%30.07 "Hg10 mi
8:30 AM66 °FPassing clouds.6 mph73%30.07 "HgN/A
8:00 AM64 °FSunny.7 mph83%30.07 "Hg10 mi
7:30 AM63 °FSunny.No wind88%30.07 "Hg10 mi
7:00 AM57 °FPassing clouds.3 mph94%30.04 "HgN/A
6:30 AM57 °FClear.2 mph100%30.04 "Hg10 mi
6:00 AM57 °FClear.3 mph94%30.04 "Hg10 mi
5:30 AM57 °FClear.3 mph94%30.04 "Hg10 mi
5:00 AM59 °FClear.No wind94%30.04 "Hg10 mi
4:30 AM57 °FClear.3 mph94%30.04 "Hg10 mi
4:00 AM59 °FClear.3 mph88%30.04 "Hg10 mi
3:30 AM59 °FClear.5 mph94%30.04 "Hg10 mi
3:00 AM61 °FClear.5 mph88%30.04 "Hg10 mi
2:30 AM59 °FClear.3 mph94%30.04 "Hg10 mi
2:00 AM61 °FClear.5 mph94%30.04 "Hg10 mi
1:30 AM61 °FClear.5 mph88%30.07 "Hg10 mi
1:00 AM61 °FClear.3 mph94%30.07 "Hg10 mi
12:30 AM61 °FClear.3 mph88%30.07 "Hg10 mi
12:00 AM61 °FClear.6 mph88%30.07 "Hg10 mi
11:30 PM
Mon, Jun 27
63 °FClear.7 mph83%30.07 "Hg10 mi
11:00 PM64 °FClear.7 mph83%30.07 "Hg10 mi
10:30 PM64 °FClear.8 mph83%30.07 "Hg10 mi
10:00 PM66 °FPassing clouds.3 mph78%30.07 "HgN/A
9:30 PM68 °FSunny.5 mph73%30.07 "Hg10 mi
9:00 PM70 °FSunny.6 mph69%30.07 "Hg10 mi
8:30 PM73 °FSunny.7 mph61%30.07 "Hg10 mi
8:00 PM77 °FSunny.10 mph57%30.07 "Hg10 mi
7:30 PM79 °FSunny.10 mph51%30.07 "Hg10 mi
7:00 PM79 °FSunny.10 mph51%30.04 "Hg10 mi
6:30 PM77 °FPassing clouds.8 mph57%30.07 "HgN/A
6:00 PM77 °FSunny.7 mph54%30.07 "Hg10 mi
5:30 PM79 °FPassing clouds.8 mph51%30.07 "HgN/A
5:00 PM79 °FPassing clouds.9 mph51%30.07 "HgN/A
4:30 PM81 °FPassing clouds.8 mph48%30.07 "HgN/A
4:00 PM81 °FPassing clouds.10 mph45%30.09 "HgN/A
Weather by CustomWeather, © 2016

See weather overviewHow to use our weather pages